sat.trackr.live / text

‹ back to catalog

STARLINK-36857

NORAD 68518 · 2026-068L

PAYLOAD ACTIVE UNKNOWN

§ Identity

Operator
Country
US
Launch date
2026-03-30
Launch site
AFETR
Launch vehicle
Mass (kg)
RCS (m²)

Purposes: comms

External: N2YO · Heavens-Above · Gunter

§ Orbital elements

Epoch: 2026-05-25T02:41:20.594688Z

Period
93.85 min
Inclination
53.1593°
Eccentricity
0.0001110
Mean motion
15.34401526 rev/d
Perigee alt
461.9 km
Apogee alt
463.5 km
Semi-major
6,840.8 km
B*
6.9283e-4
RAAN
133.0094°
Arg perigee
83.0502°
Mean anomaly
277.0627°
Rev number
866

§ Raw data

STARLINK-368571 68518U 26068L   26145.11204392  .00023105  00000+0  69283-3 0  99912 68518  53.1593 133.0094 0001110  83.0502 277.0627 15.34401526  8669

JSON: /api/v1/satellites/68518 · /tle

For live sub-satellite position, see the globe view (requires WebGL).

§ Visibility from observer

Set your observer location to see the next 7 days of passes ≥ 10°. The values pass through the URL so the page stays shareable.

No JS? Fill the form by hand. The geolocation button needs JavaScript.